Home > Weather > Pakse > Past weeks

Flag for Laos Past Weather in Pakse, Laos — Yesterday and Last 2 Weeks

Now
77 °F

Thunderstorms. Passing clouds.


Feels Like: 78 °F
Forecast: 76 / 90 °F
Wind: 18 mph from West

Location: Ubon Ratchathani Airport

Current Time: May 29, 2016 at 8:27:45 PM

Latest Report: May 29, 2016 at 8:00 PM


Visibility: N/A

Pressure: 29.77 "Hg

Humidity: 89%

Dew Point: 73 °F

Location of PakseLocation

Past Weather in Pakse — Graph

°F

Pakse Temperature Yesterday

Maximum temperature yesterday: 91 °F (at 3:00 PM)
Minimum temperature yesterday: 77 °F (at 3:00 AM)
Average temperature yesterday: 81 °F

High & Low Weather Summary for the Past Weeks

 TemperatureHumidityPressure
High100 °F (May 15, 1:00 PM)100% (May 16, 10:00 PM)29.86 "Hg (May 16, 10:00 PM)
Low75 °F (May 16, 5:00 PM)44% (May 18, 4:00 PM)29.59 "Hg (May 24, 5:00 PM)
Average84 °F80%29.75 "Hg
* Reported May 14 7:00 PM — May 29 7:00 PM, Pakse, Weather by CustomWeather, © 2016

Note: Actual official high and low records may vary slightly from our data, if they occured in-between our weather recording intervals... More about our weather records

Advertising

Pakse Weather History for the Previous 24 Hours

Scroll right to see more
 ConditionsComfort  
Time TempWeatherWind HumidityBarometerVisibility
7:00 PM
Sun, May 29
86 °FPassing clouds.5 mph75%29.71 "HgN/A
6:00 PM86 °FPassing clouds.5 mph75%29.68 "HgN/A
5:30 PM88 °FPassing clouds.6 mph70%29.68 "HgN/A
5:00 PM88 °FPassing clouds.5 mph70%29.68 "HgN/A
4:00 PM90 °FPassing clouds.6 mph67%29.65 "HgN/A
3:00 PM88 °FPassing clouds.8 mph75%29.68 "HgN/A
2:00 PM86 °FPassing clouds.7 mph79%29.71 "HgN/A
1:00 PM86 °FPartly sunny.8 mph75%29.74 "HgN/A
12:00 PM86 °FPartly sunny.8 mph75%29.77 "HgN/A
11:00 AM86 °FPartly sunny.6 mph75%29.80 "HgN/A
10:00 AM84 °FPartly sunny.8 mph79%29.80 "HgN/A
9:00 AM82 °FPartly sunny.7 mph84%29.83 "HgN/A
8:00 AM81 °FPartly sunny.6 mph89%29.80 "HgN/A
7:00 AM79 °FScattered clouds.3 mph94%29.77 "Hg6 mi
6:30 AM79 °FPassing clouds.No wind94%29.77 "Hg6 mi
6:00 AM77 °FPassing clouds.2 mph100%29.77 "Hg6 mi
5:00 AM77 °FPassing clouds.3 mph94%29.74 "Hg6 mi
4:00 AM79 °FPassing clouds.5 mph94%29.74 "Hg6 mi
3:00 AM79 °FPassing clouds.3 mph94%29.74 "Hg6 mi
2:00 AM79 °FPassing clouds.3 mph94%29.74 "Hg6 mi
1:00 AM79 °FPassing clouds.3 mph94%29.74 "Hg6 mi
12:00 AM79 °FPassing clouds.2 mph94%29.77 "Hg6 mi
11:00 PM
Sat, May 28
81 °FPassing clouds.2 mph94%29.77 "Hg6 mi
10:00 PM81 °FPassing clouds.5 mph94%29.77 "Hg6 mi
9:00 PM79 °FPassing clouds.3 mph100%29.77 "Hg6 mi
8:00 PM79 °FPassing clouds.No wind94%29.71 "Hg6 mi
Weather by CustomWeather, © 2016

See weather overviewHow to use our weather pages